SCP
0 0 0 0 0 0 0 0 0 0 0 0 0 0 0 0 0 0 0 0 0 0 0 0 1 1 1 1 1 0 0 0 0 0 0 0 0 0 0 0 0 0 0
0 0 0 0 0 0 0 0 0 0 0 0 0 0 0 0 0 0 0 0 0 0 0 0 1 1 1 0 0 0 0 0 0 0 0 0 0 0 0 0 0 0 0
0 0 0 0 0 0 0 0 0 0 0 0 0 0 0 0 0 0 0 0 0 0 0 0 1 1 0 0 0 0 0 0 0 0 0 0 0 0 0 0 0 0 0
0 0 1 0 0 0 0 0 0 0 0 0 0 0 0 0 0 0 0 0 0 0 0 0 1 1 0 0 0 0 0 0 0 0 0 0 0 -0 0 0 0 0 0
0 0 0 0 0 0 0 0 0 0 0 0 0 0 0 0 0 0 0 0 0 0 0 1 1 0 1 0 0 0 0 0 0 0 0 0 -0 0 0 0 0 0 0
0 0 0 0 0 0 0 0 0 0 0 0 0 0 0 0 0 0 0 0 0 0 1 1 1 1 0 0 0 0 0 0 0 0 0 0 0 0 0 0 0 0 0
0 0 0 0 0 0 0 0 0 0 0 0 0 0 0 0 0 0 0 1 1 1 1 1 1 1 0 0 0 0 0 0 -0 0 0 0 0 0 0 0 0 0 0
0 0 0 0 0 0 0 0 0 0 0 0 0 0 0 0 0 0 1 1 1 1 1 1 0 1 0 0 0 0 0 0 0 -0 0 0 0 0 -0 0 0 0 0
0 0 0 0 0 0 0 0 0 -0 -0 -0 0 0 0 0 0 0 0 1 1 1 1 1 0 0 0 0 0 0 0 0 0 0 -0 0 0 0 -0 0 0 0 0
0 0 0 0 0 0 0 -0 0 0 0 -0 -0 0 0 0 0 0 0 0 1 1 1 1 1 0 0 1 0 0 0 0 0 0 0 0 0 -0 -0 0 -0 0 0
0 0 0 0 0 -0 0 0 0 0 0 -0 0 -0 0 0 0 0 0 0 1 1 1 1 1 1 0 0 0 0 0 0 0 0 0 0 -0 -0 0 -0 0 0 -0
0 0 0 0 -0 -0 0 0 0 0 -0 -0 0 0 0 0 0 0 0 0 0 1 0 0 0 0 0 0 0 0 0 0 0 0 0 0 0 -0 -0 -0 -0 -0 -0
0 -0 -0 -0 -0 -0 0 0 0 -0 -0 -0 0 0 0 0 0 0 0 0 0 0 0 0 0 0 0 0 0 0 0 0 0 0 0 0 0 0 -0 -0 -0 -0 -0
0 -0 -0 -0 0 -0 0 0 0 -0 -0 0 0 -0 0 0 0 0 0 0 0 0 0 0 0 0 0 0 0 -0 0 0 0 0 0 0 -0 0 0 -0 0 0 0
-0 -0 0 -0 -0 0 -0 -0 -0 -0 0 0 0 -0 0 -0 0 0 0 0 1 0 0 0 0 0 0 0 0 0 0 0 0 0 0 0 0 0 0 0 -0 -0 -0
-0 -0 0 0 0 -0 -0 -0 -0 -0 0 0 -0 -0 -0 0 0 0 0 0 0 0 0 0 0 0 0 0 0 0 0 0 0 0 0 0 0 0 0 0 -0 -0 0
-0 0 0 0 0 -0 0 -0 0 0 0 -0 -0 -0 0 0 0 0 0 0 0 0 0 0 0 0 0 0 0 0 0 0 0 0 0 0 0 0 -0 -0 0 0 0
-0 -0 0 0 0 0 0 0 0 0 0 0 -0 -0 0 0 0 0 -0 0 0 0 0 0 0 0 0 0 0 0 0 0 0 0 0 0 0 -0 0 0 0 -0 -0
-0 -0 -0 0 0 0 0 0 0 0 0 0 0 0 0 0 -0 -0 -0 0 -0 -0 0 0 0 0 0 0 0 0 0 0 0 0 0 0 0 0 -0 -0 -0 -0 -0
0 0 0 0 0 0 0 0 0 0 0 0 0 0 0 0 0 -0 0 -0 0 0 0 0 0 0 0 0 0 0 0 0 0 0 0 -0 0 -0 -0 -0 -0 -0 -0
-0 0 0 0 0 0 0 0 0 0 0 0 0 -0 0 0 -0 0 -0 -0 -0 -0 0 0 0 0 0 0 0 0 0 0 0 0 0 0 -0 -0 -0 -0 -0 -0 -0
0 -0 -0 0 0 0 0 0 0 0 0 0 0 0 -0 -0 -0 -0 -0 -0 -0 0 0 0 0 0 0 0 0 0 0 0 0 0 0 -0 -0 -0 0 0 -0 0 0
0 -0 0 -0 0 0 0 0 0 0 0 0 0 0 0 0 0 -0 -0 -0 -0 -0 0 0 0 0 0 0 0 0 -0 0 0 0 -0 -0 0 0 0 0 0 0 0
0 0 0 0 0 0 0 0 0 0 0 0 0 0 0 0 0 0 -0 -0 -0 0 0 0 0 0 0 0 0 -0 -0 0 0 -0 -0 0 0 0 0 0 0 0 0
0 0 -0 0 -0 -0 -0 -0 0 -0 -0 0 0 0 0 0 0 0 -0 -0 -0 0 0 0 0 0 0 0 0 0 -0 -0 -0 0 0 0 0 0 0 0 0 0 0
0 0 0 -0 -0 0 -0 0 0 0 -0 0 0 0 0 0 0 0 0 -0 -0 -0 -0 -0 0 0 0 0 -0 0 -0 0 0 0 0 0 0 0 0 0 0 0 0
Wind_Speed_500mb
29 30 33 33 31 30 29 26 26 28 24 26 29 34 32 38 36 37 32 35 38 40 38 40 45 44 39 40 43 49 57 45 48 47 44 41 40 35 33 33 32 25 23
29 30 34 35 34 35 35 32 27 27 26 26 28 33 33 32 34 37 30 30 33 39 38 40 43 42 40 44 46 49 49 42 32 34 38 40 44 36 38 31 22 21 21
31 34 37 38 39 37 39 35 30 29 27 26 27 27 34 34 34 36 30 26 22 33 39 40 41 42 43 49 49 53 53 44 41 32 43 35 51 40 38 29 22 19 17
32 34 38 40 41 42 35 39 30 29 29 27 27 30 27 32 31 26 26 24 22 24 28 38 40 45 46 48 52 46 58 45 41 35 19 43 49 40 33 27 17 18 21
32 33 33 35 35 40 35 33 28 30 27 28 25 26 26 22 22 25 23 22 24 25 30 33 41 45 50 55 50 52 49 44 41 39 40 56 47 40 36 25 24 22 24
30 29 34 35 36 37 35 35 28 26 25 26 22 25 23 22 22 20 21 24 28 26 26 26 37 43 49 61 55 48 49 49 49 42 58 54 44 39 32 29 27 26 22
25 31 34 31 31 34 30 27 27 29 26 28 25 23 20 19 20 21 23 20 19 20 23 25 33 44 57 60 52 50 46 48 54 54 60 53 45 39 38 35 31 30 25
23 23 22 22 21 21 25 28 24 20 24 28 24 24 21 16 18 19 21 21 20 20 21 23 34 41 58 62 53 51 53 53 59 70 70 53 45 40 38 31 33 27 20
15 13 14 16 20 21 23 19 18 22 22 28 23 11 15 15 22 20 22 19 19 22 21 24 28 32 40 43 49 51 58 56 58 72 65 56 50 46 38 30 25 24 25
14 13 15 15 16 16 15 14 16 20 20 26 25 17 10 9 27 17 21 19 19 22 19 21 27 30 36 46 51 53 54 53 79 73 63 56 54 44 42 32 34 30 21
15 16 16 14 12 13 14 19 18 15 16 23 20 20 12 12 18 21 29 23 22 21 21 21 23 29 32 40 55 54 60 80 80 72 60 58 55 46 40 39 35 23 20
14 17 15 12 13 15 17 19 18 16 15 18 20 17 14 13 16 18 27 26 22 23 16 22 22 25 26 31 43 64 78 82 90 72 64 61 51 39 42 38 28 21 18
11 17 17 15 14 16 18 19 18 16 17 19 22 18 14 12 9 21 26 25 31 23 19 15 17 16 24 30 42 64 79 88 79 70 63 52 45 41 38 31 26 20 19
8 14 14 14 14 17 20 20 17 12 12 16 17 16 17 14 9 17 26 35 37 29 17 10 18 13 19 35 52 79 78 83 74 67 57 54 42 39 35 32 25 20 19
5 12 15 13 13 17 21 22 16 13 14 17 14 14 13 10 16 19 25 34 30 17 18 13 14 21 30 51 77 90 91 79 71 65 60 43 38 36 36 30 23 21 19
11 16 15 15 15 17 20 21 17 15 20 18 16 19 19 26 20 17 27 36 16 18 16 26 26 46 50 94 89 85 82 76 66 57 48 42 38 40 31 25 23 21 17
12 18 16 16 19 20 20 18 17 18 16 16 15 19 23 30 22 21 39 29 25 23 34 35 52 77 89 90 87 86 76 67 59 49 44 43 37 31 30 25 21 18 17
10 20 17 15 16 20 20 18 17 16 14 13 19 24 28 27 29 22 29 26 24 30 28 39 79 82 79 84 84 80 68 56 50 49 40 40 35 31 26 24 21 16 12
14 17 19 17 16 17 17 16 15 15 18 13 13 20 21 29 33 24 27 26 24 24 39 72 88 87 84 82 75 67 59 53 51 49 41 35 32 28 24 20 16 14 14
15 15 19 19 18 18 16 16 17 17 23 15 16 18 20 23 21 22 21 25 26 36 59 71 83 83 77 73 69 62 50 47 43 44 36 33 29 25 19 15 15 14 15
15 18 22 20 20 19 17 17 22 21 23 20 19 21 23 24 23 22 19 23 28 43 58 69 80 77 77 70 67 57 51 49 53 44 34 29 24 20 18 17 14 11 9
19 19 20 21 24 22 20 21 21 18 18 21 23 23 22 22 21 22 19 21 30 42 60 70 84 81 75 71 66 53 49 49 41 33 32 29 23 23 22 19 15 9 7
19 20 23 23 26 24 24 26 21 17 14 20 27 24 25 23 19 19 21 27 28 27 43 63 80 79 73 69 59 48 36 43 38 40 36 29 24 21 22 19 14 7 6
15 14 23 26 25 30 31 25 21 22 22 28 30 27 28 21 19 25 26 31 30 41 44 51 68 73 69 63 46 37 44 35 31 36 29 23 23 21 22 18 11 7 5
13 17 23 32 28 31 30 21 22 25 30 28 27 32 37 41 41 35 40 39 39 42 42 46 51 64 58 44 40 42 37 32 33 27 25 20 24 20 19 17 13 8 4
13 11 20 34 32 33 32 27 26 20 35 42 38 32 39 43 44 36 44 49 50 50 48 52 51 52 47 33 30 28 32 27 25 20 27 22 28 24 13 14 15 12 9
Wind_Direction_500mb
255 256 254 248 250 250 249 252 252 250 253 255 244 241 236 223 220 229 232 250 232 226 231 223 219 222 219 215 211 203 195 192 205 198 198 184 178 176 174 168 171 176 192
255 254 257 254 251 249 248 241 247 246 251 248 245 234 234 225 218 224 230 246 235 227 229 220 217 219 215 214 211 204 202 195 206 209 207 197 176 173 171 181 175 193 202
258 256 259 258 255 250 245 247 241 245 244 248 243 234 228 221 215 217 224 232 241 239 230 218 216 216 211 211 208 209 201 201 202 220 190 192 177 170 185 170 188 199 200
259 262 263 263 262 251 245 247 237 239 238 238 234 229 216 211 214 216 227 223 228 227 243 223 220 213 208 206 206 210 210 211 213 207 209 189 164 173 179 167 175 206 188
260 264 264 265 257 246 242 232 234 238 233 230 227 224 208 204 213 220 218 224 224 214 222 222 217 214 205 201 189 193 200 208 209 189 188 163 171 182 170 167 196 188 169
264 264 274 268 252 246 240 236 235 236 233 230 212 209 190 203 211 209 217 219 209 217 223 218 211 203 201 188 189 190 201 196 192 181 171 164 176 183 168 179 176 171 160
262 266 266 257 246 239 240 239 241 245 233 211 191 184 181 192 196 202 210 203 200 211 210 210 198 190 192 189 188 186 188 190 191 178 169 171 177 168 175 174 161 170 166
266 266 253 239 236 231 232 238 238 231 204 191 178 172 168 181 198 198 193 191 198 198 202 201 192 191 192 189 192 193 188 193 183 167 162 169 169 166 149 158 170 159 156
250 241 228 222 229 233 239 231 213 190 193 184 180 188 175 184 179 186 188 186 190 185 199 200 191 189 195 196 191 189 190 184 181 166 167 168 161 158 146 167 165 171 172
225 218 221 229 236 233 215 205 192 202 191 183 184 192 197 163 181 171 180 183 178 177 181 189 187 188 196 191 190 192 192 183 168 166 169 158 157 146 161 164 183 177 145
214 218 227 228 228 203 188 187 195 191 184 185 182 183 190 186 203 190 170 170 171 178 181 178 178 179 181 191 197 190 195 172 164 164 161 155 144 156 157 181 175 144 159
219 210 212 223 210 188 187 186 191 171 171 176 190 199 204 183 182 179 177 174 173 160 176 177 176 188 195 200 208 180 180 168 162 160 157 151 153 158 170 171 150 159 161
202 211 208 213 200 178 182 186 186 180 189 196 207 212 197 187 189 179 174 169 161 157 157 161 168 174 181 195 193 177 172 157 157 157 154 153 157 169 163 154 165 161 158
192 192 192 197 187 174 178 187 182 167 184 172 174 170 201 211 221 188 169 170 157 149 148 187 179 180 204 202 196 172 161 158 157 153 157 159 167 163 159 167 166 160 161
156 170 171 179 164 167 179 187 183 170 164 159 174 171 193 219 162 165 171 175 154 152 166 174 219 233 209 183 177 162 156 154 152 158 165 158 167 162 170 165 158 166 174
148 157 162 160 153 161 176 182 192 178 164 160 160 163 165 162 140 145 156 161 171 171 147 217 213 190 202 167 157 152 151 154 159 160 157 162 168 169 156 160 171 180 185
148 158 159 158 155 156 164 175 170 174 178 169 161 149 144 148 153 135 150 154 168 177 185 176 160 142 141 139 143 144 153 158 158 155 155 165 157 152 167 175 180 191 203
142 156 157 155 150 157 160 163 162 171 165 157 155 149 154 159 136 136 142 156 181 191 193 173 156 147 145 145 147 152 157 163 158 157 156 148 152 168 172 182 194 209 231
133 146 162 163 153 150 151 157 166 169 185 164 161 165 150 156 158 144 149 155 154 145 158 150 146 154 148 152 155 158 157 157 152 149 149 145 166 173 180 192 207 230 249
132 142 151 157 159 153 154 163 175 172 171 163 170 147 154 171 163 158 158 157 155 146 147 143 150 153 153 157 151 146 142 144 145 145 146 167 170 178 184 201 220 235 249
139 139 154 147 164 161 162 166 161 167 174 183 174 170 166 155 160 165 158 159 156 154 161 159 157 159 155 155 150 156 146 152 141 150 165 163 170 178 191 199 201 213 242
131 141 147 154 156 155 155 155 161 169 168 162 163 168 158 149 146 146 152 155 156 157 169 169 165 162 161 159 160 151 152 146 139 154 154 143 147 153 182 194 196 223 255
142 141 150 157 153 150 147 143 147 151 156 169 167 157 145 141 154 161 160 153 162 176 171 179 167 165 161 159 149 150 145 154 158 161 164 147 162 179 187 195 207 226 281
143 160 168 162 156 153 142 133 127 130 134 130 149 148 145 138 145 152 144 142 167 152 170 170 165 164 158 155 163 157 149 165 172 155 163 152 164 179 199 205 213 225 250
145 140 167 173 165 159 151 146 142 133 129 132 138 142 138 121 120 124 139 138 137 141 144 158 162 160 162 158 164 170 163 156 160 172 177 175 173 175 199 214 213 228 257
130 129 161 167 167 165 146 146 133 137 138 130 122 122 153 136 130 118 127 128 132 131 133 147 149 152 171 168 176 166 166 170 174 180 204 177 184 177 179 216 221 227 227
Wind_Speed_850mb
29 30 33 33 31 30 29 26 26 28 24 26 29 34 32 38 36 37 32 35 38 40 38 40 45 44 39 40 43 49 57 45 48 47 44 41 40 35 33 33 32 25 23
29 30 34 35 34 35 35 32 27 27 26 26 28 33 33 32 34 37 30 30 33 39 38 40 43 42 40 44 46 49 49 42 32 34 38 40 44 36 38 31 22 21 21
31 34 37 38 39 37 39 35 30 29 27 26 27 27 34 34 34 36 30 26 22 33 39 40 41 42 43 49 49 53 53 44 41 32 43 35 51 40 38 29 22 19 17
32 34 38 40 41 42 35 39 30 29 29 27 27 30 27 32 31 26 26 24 22 24 28 38 40 45 46 48 52 46 58 45 41 35 19 43 49 40 33 27 17 18 21
32 33 33 35 35 40 35 33 28 30 27 28 25 26 26 22 22 25 23 22 24 25 30 33 41 45 50 55 50 52 49 44 41 39 40 56 47 40 36 25 24 22 24
30 29 34 35 36 37 35 35 28 26 25 26 22 25 23 22 22 20 21 24 28 26 26 26 37 43 49 61 55 48 49 49 49 42 58 54 44 39 32 29 27 26 22
25 31 34 31 31 34 30 27 27 29 26 28 25 23 20 19 20 21 23 20 19 20 23 25 33 44 57 60 52 50 46 48 54 54 60 53 45 39 38 35 31 30 25
23 23 22 22 21 21 25 28 24 20 24 28 24 24 21 16 18 19 21 21 20 20 21 23 34 41 58 62 53 51 53 53 59 70 70 53 45 40 38 31 33 27 20
15 13 14 16 20 21 23 19 18 22 22 28 23 11 15 15 22 20 22 19 19 22 21 24 28 32 40 43 49 51 58 56 58 72 65 56 50 46 38 30 25 24 25
14 13 15 15 16 16 15 14 16 20 20 26 25 17 10 9 27 17 21 19 19 22 19 21 27 30 36 46 51 53 54 53 79 73 63 56 54 44 42 32 34 30 21
15 16 16 14 12 13 14 19 18 15 16 23 20 20 12 12 18 21 29 23 22 21 21 21 23 29 32 40 55 54 60 80 80 72 60 58 55 46 40 39 35 23 20
14 17 15 12 13 15 17 19 18 16 15 18 20 17 14 13 16 18 27 26 22 23 16 22 22 25 26 31 43 64 78 82 90 72 64 61 51 39 42 38 28 21 18
11 17 17 15 14 16 18 19 18 16 17 19 22 18 14 12 9 21 26 25 31 23 19 15 17 16 24 30 42 64 79 88 79 70 63 52 45 41 38 31 26 20 19
8 14 14 14 14 17 20 20 17 12 12 16 17 16 17 14 9 17 26 35 37 29 17 10 18 13 19 35 52 79 78 83 74 67 57 54 42 39 35 32 25 20 19
5 12 15 13 13 17 21 22 16 13 14 17 14 14 13 10 16 19 25 34 30 17 18 13 14 21 30 51 77 90 91 79 71 65 60 43 38 36 36 30 23 21 19
11 16 15 15 15 17 20 21 17 15 20 18 16 19 19 26 20 17 27 36 16 18 16 26 26 46 50 94 89 85 82 76 66 57 48 42 38 40 31 25 23 21 17
12 18 16 16 19 20 20 18 17 18 16 16 15 19 23 30 22 21 39 29 25 23 34 35 52 77 89 90 87 86 76 67 59 49 44 43 37 31 30 25 21 18 17
10 20 17 15 16 20 20 18 17 16 14 13 19 24 28 27 29 22 29 26 24 30 28 39 79 82 79 84 84 80 68 56 50 49 40 40 35 31 26 24 21 16 12
14 17 19 17 16 17 17 16 15 15 18 13 13 20 21 29 33 24 27 26 24 24 39 72 88 87 84 82 75 67 59 53 51 49 41 35 32 28 24 20 16 14 14
15 15 19 19 18 18 16 16 17 17 23 15 16 18 20 23 21 22 21 25 26 36 59 71 83 83 77 73 69 62 50 47 43 44 36 33 29 25 19 15 15 14 15
15 18 22 20 20 19 17 17 22 21 23 20 19 21 23 24 23 22 19 23 28 43 58 69 80 77 77 70 67 57 51 49 53 44 34 29 24 20 18 17 14 11 9
19 19 20 21 24 22 20 21 21 18 18 21 23 23 22 22 21 22 19 21 30 42 60 70 84 81 75 71 66 53 49 49 41 33 32 29 23 23 22 19 15 9 7
19 20 23 23 26 24 24 26 21 17 14 20 27 24 25 23 19 19 21 27 28 27 43 63 80 79 73 69 59 48 36 43 38 40 36 29 24 21 22 19 14 7 6
15 14 23 26 25 30 31 25 21 22 22 28 30 27 28 21 19 25 26 31 30 41 44 51 68 73 69 63 46 37 44 35 31 36 29 23 23 21 22 18 11 7 5
13 17 23 32 28 31 30 21 22 25 30 28 27 32 37 41 41 35 40 39 39 42 42 46 51 64 58 44 40 42 37 32 33 27 25 20 24 20 19 17 13 8 4
13 11 20 34 32 33 32 27 26 20 35 42 38 32 39 43 44 36 44 49 50 50 48 52 51 52 47 33 30 28 32 27 25 20 27 22 28 24 13 14 15 12 9
Wind_Direction_850mb
255 256 254 248 250 250 249 252 252 250 253 255 244 241 236 223 220 229 232 250 232 226 231 223 219 222 219 215 211 203 195 192 205 198 198 184 178 176 174 168 171 176 192
255 254 257 254 251 249 248 241 247 246 251 248 245 234 234 225 218 224 230 246 235 227 229 220 217 219 215 214 211 204 202 195 206 209 207 197 176 173 171 181 175 193 202
258 256 259 258 255 250 245 247 241 245 244 248 243 234 228 221 215 217 224 232 241 239 230 218 216 216 211 211 208 209 201 201 202 220 190 192 177 170 185 170 188 199 200
259 262 263 263 262 251 245 247 237 239 238 238 234 229 216 211 214 216 227 223 228 227 243 223 220 213 208 206 206 210 210 211 213 207 209 189 164 173 179 167 175 206 188
260 264 264 265 257 246 242 232 234 238 233 230 227 224 208 204 213 220 218 224 224 214 222 222 217 214 205 201 189 193 200 208 209 189 188 163 171 182 170 167 196 188 169
264 264 274 268 252 246 240 236 235 236 233 230 212 209 190 203 211 209 217 219 209 217 223 218 211 203 201 188 189 190 201 196 192 181 171 164 176 183 168 179 176 171 160
262 266 266 257 246 239 240 239 241 245 233 211 191 184 181 192 196 202 210 203 200 211 210 210 198 190 192 189 188 186 188 190 191 178 169 171 177 168 175 174 161 170 166
266 266 253 239 236 231 232 238 238 231 204 191 178 172 168 181 198 198 193 191 198 198 202 201 192 191 192 189 192 193 188 193 183 167 162 169 169 166 149 158 170 159 156
250 241 228 222 229 233 239 231 213 190 193 184 180 188 175 184 179 186 188 186 190 185 199 200 191 189 195 196 191 189 190 184 181 166 167 168 161 158 146 167 165 171 172
225 218 221 229 236 233 215 205 192 202 191 183 184 192 197 163 181 171 180 183 178 177 181 189 187 188 196 191 190 192 192 183 168 166 169 158 157 146 161 164 183 177 145
214 218 227 228 228 203 188 187 195 191 184 185 182 183 190 186 203 190 170 170 171 178 181 178 178 179 181 191 197 190 195 172 164 164 161 155 144 156 157 181 175 144 159
219 210 212 223 210 188 187 186 191 171 171 176 190 199 204 183 182 179 177 174 173 160 176 177 176 188 195 200 208 180 180 168 162 160 157 151 153 158 170 171 150 159 161
202 211 208 213 200 178 182 186 186 180 189 196 207 212 197 187 189 179 174 169 161 157 157 161 168 174 181 195 193 177 172 157 157 157 154 153 157 169 163 154 165 161 158
192 192 192 197 187 174 178 187 182 167 184 172 174 170 201 211 221 188 169 170 157 149 148 187 179 180 204 202 196 172 161 158 157 153 157 159 167 163 159 167 166 160 161
156 170 171 179 164 167 179 187 183 170 164 159 174 171 193 219 162 165 171 175 154 152 166 174 219 233 209 183 177 162 156 154 152 158 165 158 167 162 170 165 158 166 174
148 157 162 160 153 161 176 182 192 178 164 160 160 163 165 162 140 145 156 161 171 171 147 217 213 190 202 167 157 152 151 154 159 160 157 162 168 169 156 160 171 180 185
148 158 159 158 155 156 164 175 170 174 178 169 161 149 144 148 153 135 150 154 168 177 185 176 160 142 141 139 143 144 153 158 158 155 155 165 157 152 167 175 180 191 203
142 156 157 155 150 157 160 163 162 171 165 157 155 149 154 159 136 136 142 156 181 191 193 173 156 147 145 145 147 152 157 163 158 157 156 148 152 168 172 182 194 209 231
133 146 162 163 153 150 151 157 166 169 185 164 161 165 150 156 158 144 149 155 154 145 158 150 146 154 148 152 155 158 157 157 152 149 149 145 166 173 180 192 207 230 249
132 142 151 157 159 153 154 163 175 172 171 163 170 147 154 171 163 158 158 157 155 146 147 143 150 153 153 157 151 146 142 144 145 145 146 167 170 178 184 201 220 235 249
139 139 154 147 164 161 162 166 161 167 174 183 174 170 166 155 160 165 158 159 156 154 161 159 157 159 155 155 150 156 146 152 141 150 165 163 170 178 191 199 201 213 242
131 141 147 154 156 155 155 155 161 169 168 162 163 168 158 149 146 146 152 155 156 157 169 169 165 162 161 159 160 151 152 146 139 154 154 143 147 153 182 194 196 223 255
142 141 150 157 153 150 147 143 147 151 156 169 167 157 145 141 154 161 160 153 162 176 171 179 167 165 161 159 149 150 145 154 158 161 164 147 162 179 187 195 207 226 281
143 160 168 162 156 153 142 133 127 130 134 130 149 148 145 138 145 152 144 142 167 152 170 170 165 164 158 155 163 157 149 165 172 155 163 152 164 179 199 205 213 225 250
145 140 167 173 165 159 151 146 142 133 129 132 138 142 138 121 120 124 139 138 137 141 144 158 162 160 162 158 164 170 163 156 160 172 177 175 173 175 199 214 213 228 257
130 129 161 167 167 165 146 146 133 137 138 130 122 122 153 136 130 118 127 128 132 131 133 147 149 152 171 168 176 166 166 170 174 180 204 177 184 177 179 216 221 227 227